DCM175 KEVU-KMCI

Flight info

Callsign DCM175
Flight time N/A
Altitude 15000
Route DCT
Aircraft TBM8/L-VGDW/C

Departure

Time 2026-04-17 22:14
Airport Northwest Missouri Regional Airport (KEVU)

Arrival

Time N/A
Airport Kansas City International Airport (KMCI)
Time Latitude Longitude Altitude Speed Heading
2026-04-17 22:07 40.35011 -94.91075 1150 ft 0 kts 120°
2026-04-17 22:11 40.35011 -94.91074 1150 ft 1 kts 122°
2026-04-17 22:11 40.34997 -94.91077 1150 ft 1 kts 227°
2026-04-17 22:12 40.34948 -94.91117 1147 ft 14 kts 201°
2026-04-17 22:12 40.34852 -94.91147 1146 ft 19 kts 197°
2026-04-17 22:12 40.34811 -94.91230 1148 ft 8 kts 288°
2026-04-17 22:12 40.34882 -94.91303 1148 ft 13 kts 329°
2026-04-17 22:13 40.35053 -94.91443 1148 ft 57 kts 328°
2026-04-17 22:13 40.35415 -94.91728 1141 ft 35 kts 326°
2026-04-17 22:13 40.35532 -94.91835 1139 ft 10 kts 328°
2026-04-17 22:13 40.35686 -94.91951 1140 ft 53 kts 332°
2026-04-17 22:14 40.36138 -94.92316 1305 ft 88 kts 326°
2026-04-17 22:14 40.36736 -94.92795 1604 ft 115 kts 329°
2026-04-17 22:14 40.37441 -94.93457 2065 ft 124 kts 315°
2026-04-17 22:14 40.37576 -94.94553 2656 ft 139 kts 250°
2026-04-17 22:15 40.36742 -94.95251 3224 ft 158 kts 189°
2026-04-17 22:15 40.35685 -94.95171 4006 ft 143 kts 181°
2026-04-17 22:15 40.34753 -94.95084 4830 ft 129 kts 181°
2026-04-17 22:15 40.33818 -94.94949 5308 ft 136 kts 181°
2026-04-17 22:16 40.32897 -94.94792 5960 ft 132 kts 180°
2026-04-17 22:16 40.32004 -94.94616 6596 ft 129 kts 181°
2026-04-17 22:16 40.31106 -94.94419 7135 ft 133 kts 181°
2026-04-17 22:16 40.30188 -94.94191 7671 ft 135 kts 181°
2026-04-17 22:17 40.29268 -94.93989 8220 ft 137 kts 183°
2026-04-17 22:17 40.28318 -94.93778 8772 ft 139 kts 184°
2026-04-17 22:17 40.27354 -94.93560 9309 ft 142 kts 184°
2026-04-17 22:17 40.26374 -94.93336 9836 ft 144 kts 184°
2026-04-17 22:18 40.25383 -94.93104 10350 ft 145 kts 184°
2026-04-17 22:18 40.24383 -94.92875 10869 ft 147 kts 184°
2026-04-17 22:18 40.23372 -94.92643 11388 ft 148 kts 184°
2026-04-17 22:18 40.22350 -94.92408 11906 ft 150 kts 184°
2026-04-17 22:19 40.21317 -94.92170 12443 ft 152 kts 183°
2026-04-17 22:19 40.20274 -94.91930 12975 ft 153 kts 183°
2026-04-17 22:19 40.19221 -94.91688 13479 ft 154 kts 183°
2026-04-17 22:19 40.18159 -94.91443 13953 ft 155 kts 183°
2026-04-17 22:20 40.17095 -94.91192 14418 ft 156 kts 183°
2026-04-17 22:20 40.16028 -94.90940 14868 ft 156 kts 184°
2026-04-17 22:20 40.14894 -94.90698 14975 ft 177 kts 184°
2026-04-17 22:20 40.13588 -94.90421 14990 ft 201 kts 181°
2026-04-17 22:21 40.12148 -94.90087 14995 ft 219 kts 180°
2026-04-17 22:21 40.10621 -94.89728 14995 ft 232 kts 180°
2026-04-17 22:21 40.08995 -94.89351 14988 ft 242 kts 180°
2026-04-17 22:21 40.07307 -94.88962 14982 ft 250 kts 179°
2026-04-17 22:22 40.05573 -94.88562 14982 ft 255 kts 179°
2026-04-17 22:22 40.03809 -94.88158 14986 ft 259 kts 179°